GEFSNE_500_meanwind_096.txt.gz
Wind_Speed
40 41 42 42 42 42 43 44 45 47 48 48 49 50 51 52 53 54 54 55 56 56 57 58 59 61 61 62 62 62 61 61 63 64 66 65 62 62
42 43 43 43 44 45 45 45 46 48 49 49 50 50 50 51 51 52 54 55 55 55 56 56 57 57 57 57 57 57 58 58 58 59 61 63 62 61
43 42 42 43 43 44 44 44 45 45 46 47 48 49 50 50 51 51 51 50 50 50 49 49 49 49 48 48 49 49 49 50 51 51 53 54 56 57
41 41 42 42 42 43 44 44 44 44 44 45 46 46 47 47 47 46 45 44 44 44 44 43 44 44 44 43 43 43 43 44 44 45 46 47 49 50
40 41 41 42 42 43 43 43 43 43 43 43 42 42 42 42 42 43 43 42 41 41 41 41 41 41 40 40 39 39 39 39 39 39 40 41 42 43
39 39 39 40 40 40 40 40 40 39 39 39 39 39 39 39 39 39 39 38 38 38 38 37 37 36 36 36 36 35 34 34 34 35 36 37 37 38
37 37 37 38 38 37 37 36 36 36 36 37 37 37 36 36 36 35 35 35 35 35 34 33 33 33 33 33 32 31 30 30 30 30 31 32 32 33
35 35 35 34 33 33 33 33 33 33 33 33 33 33 33 33 32 32 32 31 31 30 30 30 30 29 29 28 27 26 26 26 26 27 27 27 27 28
31 30 30 30 30 30 29 29 29 29 30 30 29 29 29 29 29 28 28 28 26 26 26 25 25 24 23 23 22 22 22 23 23 23 23 23 23 24
27 27 27 27 27 26 26 26 26 27 27 27 27 26 26 26 24 24 23 23 22 21 21 21 21 21 20 20 20 20 20 21 21 21 21 21 21 22
25 25 24 24 23 23 24 24 25 25 24 24 24 23 22 21 20 19 19 19 18 18 18 18 19 19 19 18 18 18 18 18 19 19 20 21 21 21
22 22 22 22 22 22 22 22 22 21 21 21 20 18 17 16 16 16 16 16 16 16 16 16 16 16 16 17 17 17 17 18 18 18 19 19 20 20
20 20 20 20 20 19 19 18 18 17 17 16 16 15 14 14 14 14 14 14 14 14 15 15 16 16 16 16 17 17 17 17 17 18 18 19 19 19
18 18 18 17 17 17 16 15 15 14 14 14 13 13 13 13 13 13 13 13 13 14 15 15 15 15 16 16 17 17 17 17 18 18 19 20 20 20
15 15 15 15 13 13 12 13 12 12 12 12 12 11 12 12 12 12 12 13 13 14 14 15 15 15 15 16 16 17 18 18 18 19 20 21 21 21
13 13 13 11 11 11 11 11 11 11 11 11 11 11 11 11 11 12 12 13 13 13 14 15 15 15 16 16 16 17 17 18 19 20 21 21 22 21
11 11 11 11 11 11 11 10 10 10 10 10 10 11 11 11 11 11 12 13 13 13 13 14 14 15 16 17 17 17 18 18 20 21 22 23 23 22
10 10 10 11 11 11 11 11 10 10 10 10 10 10 10 9 10 11 12 13 13 13 13 13 14 15 16 17 17 18 18 18 20 21 23 23 24 23
10 10 10 10 11 11 10 10 10 9 9 9 9 9 8 9 9 10 11 12 12 13 13 13 14 15 16 17 17 18 18 19 20 21 22 23 24 24
10 10 10 10 10 10 9 9 9 9 8 8 8 8 8 8 9 10 10 11 12 12 13 13 14 15 16 17 17 17 18 19 20 21 22 23 24 24
10 10 10 10 10 9 9 8 8 8 8 8 8 7 7 8 9 9 10 11 11 12 13 13 14 15 16 17 17 18 19 19 20 21 22 23 24 24
10 10 10 9 9 9 8 8 7 7 7 7 7 7 7 8 8 9 10 11 11 12 12 13 14 15 16 17 18 18 19 20 21 21 22 23 23 23
10 10 10 10 9 9 8 7 7 7 7 7 7 7 7 8 9 9 10 10 11 11 12 13 14 15 16 17 18 18 19 20 21 22 22 23 23 24

GEFSNE_500_meanwind_102.txt.gz
Wind_Speed
38 38 39 40 41 42 43 43 44 45 46 47 47 48 48 48 49 50 51 51 52 53 53 52 52 53 53 54 54 54 55 55 55 54 55 55 55 55
39 39 40 42 43 43 43 44 44 45 46 46 46 48 48 48 49 49 50 50 50 50 50 49 49 50 51 51 51 51 51 51 50 49 49 49 49 50
39 40 41 42 42 42 43 43 44 44 45 45 46 46 47 46 47 47 48 48 48 48 48 48 48 49 48 48 48 48 47 47 47 46 46 46 46 46
39 39 40 40 41 41 41 41 42 42 42 43 43 43 44 44 44 44 45 45 45 45 45 46 46 45 44 44 44 43 43 42 42 42 42 43 43 43
38 38 38 38 38 38 38 39 39 39 40 40 40 40 40 40 41 41 41 41 41 41 41 41 40 40 41 40 39 38 38 38 38 38 38 39 40 41
36 36 35 35 35 36 37 37 36 37 37 36 36 36 37 37 37 37 37 37 38 37 37 36 36 36 36 35 35 35 34 34 34 35 35 36 37 37
32 33 33 34 34 34 35 35 35 34 33 33 33 33 33 33 33 34 34 34 34 33 33 32 32 31 30 30 30 30 31 31 31 31 31 32 33 33
31 31 32 32 32 33 33 33 33 31 30 31 31 31 31 31 32 32 31 30 30 29 29 28 27 27 27 26 26 26 27 27 27 27 27 28 28 29
28 29 30 30 30 29 30 29 29 29 29 29 29 28 28 29 28 28 27 25 25 25 24 24 23 23 23 24 24 24 24 24 24 25 25 26 26 26
25 25 25 25 25 25 25 25 26 25 25 25 25 24 24 23 23 22 22 22 22 21 21 21 21 21 21 21 21 22 22 22 22 22 23 23 24 24
23 22 22 22 22 22 22 22 22 21 21 21 20 20 20 19 19 18 18 18 18 18 18 18 18 19 19 19 20 20 20 20 20 21 21 21 22 21
20 20 20 20 20 20 20 20 19 19 18 18 17 16 16 15 15 15 15 14 15 15 15 15 16 16 17 17 17 17 18 18 18 19 20 21 21 20
18 18 18 18 18 18 18 17 17 16 15 14 14 13 13 13 13 12 12 12 12 12 12 13 14 15 15 15 16 16 17 17 18 20 20 21 21 20
16 16 16 16 16 16 16 15 14 13 12 12 11 11 11 11 10 10 10 11 11 11 11 12 13 13 14 14 15 16 16 17 19 20 20 21 22 21
15 15 15 15 15 14 13 12 12 11 11 10 10 10 9 9 9 9 9 10 10 10 10 11 12 13 14 14 15 16 17 18 19 20 21 21 22 22
12 12 12 12 12 12 11 11 11 10 9 9 8 8 7 7 7 8 8 9 9 10 10 11 11 12 13 14 15 16 17 18 19 20 21 22 22 22
11 11 11 11 11 11 10 10 9 8 8 7 6 6 6 6 6 7 7 8 9 9 10 11 11 12 13 15 16 16 17 18 19 20 21 22 23 23
11 11 11 10 10 10 9 8 8 7 6 6 5 5 5 5 6 6 7 7 8 9 10 11 12 13 14 15 16 16 17 18 19 20 21 22 23 23
10 10 10 9 9 8 8 7 6 6 5 5 5 4 4 5 5 6 6 7 8 9 10 11 12 13 14 15 16 17 18 19 19 20 21 22 22 23
9 10 9 8 8 7 7 6 5 4 4 4 4 4 4 4 5 6 6 7 8 9 10 11 12 13 14 15 16 17 18 19 20 21 21 22 22 23
9 9 9 8 7 7 6 5 4 4 4 4 4 4 4 4 5 6 7 8 9 10 11 12 13 14 15 15 17 17 18 19 20 21 21 22 23 23
9 8 8 8 7 6 6 5 4 4 4 4 4 4 5 5 6 7 8 9 10 11 12 12 13 14 15 16 17 18 19 20 20 21 22 22 23 23
9 9 8 7 7 6 5 5 5 5 5 5 5 6 6 7 8 8 9 10 11 12 13 13 14 15 16 17 18 18 19 20 21 21 22 23 23 23

GEFSNE_500_meanwind_108.txt.gz
Wind_Speed
40 41 41 42 42 42 42 43 44 45 45 45 46 47 47 48 48 48 48 48 49 48 48 48 49 50 50 50 51 51 51 50 50 50 50 51 52 53
39 40 41 41 41 41 41 42 43 44 45 45 46 45 46 47 47 47 46 47 47 47 47 48 49 49 49 50 49 48 48 47 47 47 48 48 49 50
38 39 40 40 40 40 40 41 42 43 44 44 44 44 44 45 45 45 45 45 45 46 46 46 46 46 46 46 45 44 44 45 45 45 45 45 46 47
38 38 39 38 38 39 40 41 41 41 42 42 42 42 42 42 42 42 42 43 43 44 44 43 43 43 43 42 41 41 42 42 41 41 42 43 43 43
36 36 36 37 37 38 38 38 39 39 39 39 40 40 39 39 40 40 40 41 41 40 40 40 39 38 38 38 37 37 37 37 36 36 37 38 37 37
34 34 35 35 35 35 35 35 36 36 36 36 36 36 36 36 37 37 37 37 36 36 36 35 34 33 33 34 33 33 33 32 33 33 34 34 34 34
31 32 32 32 32 32 32 32 32 32 32 33 33 33 33 34 34 34 34 33 32 31 31 30 30 30 29 28 28 28 29 29 29 30 30 30 30 31
30 30 30 30 30 30 31 31 31 30 30 29 30 30 30 30 29 29 29 28 27 27 26 26 25 25 24 24 24 24 24 24 25 26 26 27 27 28
27 28 28 28 28 28 27 27 27 27 27 27 27 27 26 26 26 25 24 23 22 22 21 21 21 20 21 20 20 20 20 21 22 23 23 24 25 25
24 24 24 25 25 25 25 24 24 24 24 24 23 23 22 22 21 20 19 19 18 18 18 17 16 16 16 16 17 17 18 19 20 21 22 22 21 22
21 21 21 21 22 22 22 22 22 22 22 21 20 19 18 17 16 15 15 15 15 14 14 13 12 13 13 14 15 16 17 18 19 20 20 19 20 20
19 19 19 19 20 20 19 19 19 19 18 18 17 15 14 13 13 12 11 11 11 10 10 10 11 11 12 13 14 15 16 17 17 18 18 19 19 19
17 18 17 17 18 17 17 16 16 16 15 14 12 11 10 10 9 9 8 8 8 8 8 9 9 10 11 12 13 14 16 17 17 17 17 17 18 18
15 15 15 15 15 14 14 14 13 12 11 10 9 8 7 7 6 6 6 6 6 7 8 8 8 9 10 11 12 13 15 16 16 17 17 17 17 18
13 13 13 12 12 12 11 10 9 8 7 7 6 6 5 5 5 5 5 5 6 7 7 7 7 8 10 11 12 13 14 15 15 16 17 17 18 18
11 11 11 11 10 9 8 7 6 6 5 5 4 4 4 3 3 3 3 4 6 7 7 7 8 9 10 11 11 13 14 14 15 16 17 17 18 18
9 9 9 8 7 7 7 6 5 4 3 3 2 2 2 2 2 2 3 4 5 5 6 7 8 9 10 11 12 13 14 14 15 16 17 18 18 19
7 7 7 6 6 6 5 4 3 3 2 1 1 1 0 0 1 2 3 4 4 5 5 6 8 9 10 11 12 13 14 14 15 16 17 18 18 19
6 6 6 5 5 5 4 3 2 1 1 1 1 1 1 1 2 3 3 4 5 6 6 7 8 9 10 11 12 13 14 14 15 16 17 18 18 19
5 5 4 4 4 3 3 2 1 0 1 1 2 2 3 3 3 3 4 5 5 6 6 7 8 9 10 11 12 13 13 14 15 16 17 17 18 19
4 4 3 3 3 3 2 1 1 1 2 2 3 3 4 4 4 4 5 5 6 6 7 8 8 9 10 11 12 13 13 14 15 16 17 18 19 19
4 4 3 3 3 2 2 2 2 3 3 4 4 5 5 5 5 5 5 6 6 7 7 8 9 9 10 11 12 13 14 15 15 16 17 18 19 20
5 5 4 4 4 3 4 4 4 4 5 5 6 6 6 6 6 6 6 6 6 7 7 8 9 10 10 11 12 13 14 15 16 17 18 18 19 20

GEFSNE_500_meanwind_114.txt.gz
Wind_Speed
35 35 35 36 37 38 39 41 42 42 42 42 42 43 44 45 46 47 47 47 47 47 47 47 47 47 47 47 47 47 48 47 46 46 46 46 46 46
34 34 35 36 37 38 39 41 42 42 42 42 42 43 44 45 46 46 46 45 44 44 44 44 44 44 44 44 44 44 44 43 43 42 42 42 42 44
33 34 35 36 38 38 38 39 40 40 41 41 42 43 44 44 44 43 43 42 42 43 42 42 41 41 40 40 40 40 39 39 39 39 39 40 40 41
33 33 35 36 36 36 37 37 38 38 39 39 40 41 41 41 41 40 39 40 39 39 39 39 38 37 37 36 36 36 35 34 34 34 35 35 36 36
31 32 33 34 35 35 36 36 37 37 37 38 38 38 38 38 37 37 37 36 35 35 35 34 34 34 33 33 34 33 32 32 32 32 32 32 33 34
31 32 33 33 34 34 35 35 35 34 35 35 35 35 35 34 34 34 33 33 32 32 31 31 31 30 30 30 29 29 29 28 28 29 29 30 30 31
30 30 31 32 33 32 32 32 32 32 32 33 32 32 32 31 31 30 30 30 29 28 28 27 26 26 26 26 26 26 26 26 26 26 26 27 28 28
27 28 28 28 29 29 29 30 30 30 30 30 30 29 29 28 27 26 26 25 25 24 23 22 23 23 23 22 22 22 23 23 23 23 24 25 25 24
24 24 25 26 26 27 27 27 27 27 27 27 27 27 26 25 24 23 21 21 20 19 19 19 19 19 19 20 19 20 20 21 21 21 21 21 22 22
22 22 23 23 23 24 24 24 24 24 24 24 24 23 22 21 20 19 18 17 17 16 16 16 16 16 16 17 17 18 18 18 19 19 20 20 20 21
20 20 20 21 21 21 21 21 21 21 21 20 20 19 19 17 16 16 15 14 13 13 14 14 14 13 14 14 15 16 17 17 17 18 19 19 19 19
18 19 19 20 20 19 19 19 19 19 18 17 16 16 15 14 13 12 11 11 11 11 12 12 11 11 11 12 13 14 15 16 17 17 18 18 18 18
17 17 18 18 17 17 17 17 17 16 15 14 13 12 11 10 9 8 8 8 8 8 9 9 8 8 9 10 11 12 14 15 16 16 17 17 17 17
15 15 15 15 15 15 15 14 13 13 12 11 10 9 8 7 7 6 6 5 5 6 7 6 6 6 8 9 11 12 13 14 15 16 16 16 17 18
13 13 13 13 13 13 12 11 10 10 9 8 7 7 6 5 5 4 4 4 4 5 4 4 5 6 7 9 11 12 13 14 15 16 16 16 17 18
12 12 12 12 12 11 10 9 9 8 7 6 6 5 4 4 3 3 2 3 4 3 3 4 5 6 7 9 11 12 13 14 15 15 16 16 17 18
10 11 11 10 10 9 9 8 7 7 5 5 4 4 3 3 2 2 2 3 3 2 3 4 5 6 8 9 11 12 13 14 14 15 16 17 18 19
9 10 9 8 8 8 7 7 6 5 4 3 3 2 2 2 1 1 1 1 2 2 2 3 5 6 8 9 11 12 13 13 14 15 16 17 18 19
7 7 7 7 7 7 6 5 4 4 3 3 2 2 1 1 1 1 0 1 2 2 3 4 5 6 8 9 11 12 12 13 14 15 16 17 18 19
6 6 6 6 6 5 4 4 3 3 2 1 1 1 1 1 1 1 1 1 2 3 4 5 6 7 8 10 11 12 12 13 14 15 16 17 18 19
6 6 6 5 5 4 4 3 2 1 0 1 1 1 2 2 1 1 1 2 2 3 4 5 7 7 9 10 11 12 13 14 15 16 17 18 19 19
6 5 5 5 5 4 4 3 2 1 1 1 1 1 2 2 1 1 1 2 2 3 5 6 7 8 9 10 11 12 13 14 16 17 17 18 19 20
7 6 6 6 5 5 4 4 3 2 2 2 2 2 1 1 1 0 1 2 3 4 5 6 7 9 10 10 11 12 13 14 15 16 17 19 20 20